EHI
1 0 0 0 0 0 0 0 0 0 0 0 0 0 1 1 1 1 7 23 44 52 45 48 63 69 67 64 55 43 33 25 20 17 11 6 3 1 0 0 0 0 0 0 0 0 0 0 0
1 0 0 0 0 0 0 0 0 0 1 1 0 1 2 2 2 4 12 30 51 58 51 52 66 72 69 63 51 38 28 20 16 13 8 4 1 0 0 0 0 0 0 0 0 0 0 0 0
1 0 0 0 0 0 0 0 0 1 2 2 1 1 2 2 3 8 23 46 64 66 58 59 71 76 70 59 43 29 21 16 12 9 6 2 0 0 0 0 0 0 0 0 0 0 0 0 0
0 0 0 0 0 0 0 0 2 3 3 4 5 4 2 2 6 22 45 65 75 72 64 65 75 77 69 53 35 23 16 13 10 8 5 1 0 0 0 0 0 0 0 0 0 0 0 0 0
0 0 0 0 0 0 0 1 4 5 5 8 11 10 7 8 21 47 68 78 81 79 71 70 75 76 66 48 31 20 14 11 9 7 3 0 0 0 0 0 0 0 0 0 0 0 0 0 0
0 0 0 0 0 0 0 2 6 8 10 15 20 18 15 21 43 67 78 80 82 83 79 73 71 67 57 42 28 19 13 10 6 4 1 0 0 0 0 0 0 0 0 0 0 0 0 0 0
0 0 0 0 0 0 0 2 6 9 14 21 28 26 22 32 55 74 79 77 79 83 83 75 64 53 44 33 24 17 12 8 4 1 0 0 0 0 0 0 0 0 0 0 0 0 0 0 0
0 0 0 0 0 0 0 2 5 9 15 24 30 29 29 43 63 76 81 78 76 78 79 74 61 47 33 23 17 12 8 5 3 1 0 0 0 0 0 0 0 0 0 0 0 0 0 0 0
0 0 0 0 0 0 0 2 5 10 19 29 33 33 42 60 74 81 82 78 73 69 67 64 55 43 31 21 14 9 5 3 1 0 0 0 0 0 0 0 0 0 0 0 0 0 0 0 0
0 0 0 0 0 0 1 2 6 11 21 34 41 47 61 74 80 80 75 70 66 59 51 46 40 33 27 21 16 10 6 2 0 0 0 0 0 0 0 0 0 0 0 0 0 0 0 0 0
0 0 0 0 0 0 1 2 5 10 16 29 45 60 71 78 77 71 65 59 54 49 41 34 28 23 20 20 18 14 9 3 1 0 0 0 0 0 0 0 0 0 0 0 0 0 0 0 0
0 0 0 0 0 0 0 1 4 7 11 24 46 62 71 74 70 61 53 49 44 40 35 31 26 20 16 17 18 16 10 4 1 0 0 0 0 0 0 0 0 0 0 0 0 0 0 0 0
0 0 0 0 0 0 0 1 2 5 14 30 47 59 65 67 63 52 44 41 38 34 30 28 25 20 15 13 15 14 8 2 0 0 0 0 0 0 0 0 0 0 0 0 0 0 0 0 0
0 0 0 0 0 0 0 0 1 8 21 36 45 49 52 56 57 50 41 38 35 32 27 24 22 18 13 11 10 8 4 1 0 0 0 0 0 0 0 0 0 0 0 0 0 0 0 0 0
0 0 0 0 0 0 0 0 2 12 27 35 36 36 40 45 49 48 44 38 33 30 27 23 19 14 10 8 6 4 1 0 0 0 0 0 0 0 0 0 0 0 0 0 0 0 0 0 0
0 0 0 0 0 0 0 0 3 16 30 34 31 32 36 37 39 42 42 37 32 29 26 22 17 12 8 6 4 1 0 0 0 0 0 0 0 0 0 0 0 0 0 0 0 0 0 0 0
0 0 0 0 0 0 0 0 3 15 29 33 32 34 36 33 31 34 35 31 28 28 25 21 15 11 8 5 2 1 0 0 0 0 0 0 0 0 0 0 0 0 0 0 0 0 0 0 0
0 0 0 0 0 0 0 0 3 13 24 29 31 35 37 33 28 29 29 25 23 23 23 20 15 12 9 5 2 1 0 0 0 0 0 0 0 0 0 0 0 0 0 0 0 0 0 0 0
0 0 0 0 0 0 0 0 2 9 18 23 28 33 36 32 25 24 24 22 19 17 17 17 14 12 10 6 3 1 0 0 0 0 0 0 0 1 1 0 0 0 0 0 0 0 0 0 0
0 0 0 0 0 0 0 0 1 5 10 16 23 27 30 28 22 20 22 21 17 14 13 13 12 10 8 6 3 2 1 1 0 0 0 1 1 1 1 0 0 0 0 0 0 0 0 0 0
0 0 0 0 0 0 0 0 1 2 5 10 15 18 22 22 18 18 19 19 17 14 12 11 11 9 7 4 3 3 3 3 1 0 0 1 1 1 1 0 0 0 0 0 0 0 0 0 0
0 0 0 0 0 0 0 0 0 1 2 5 8 12 16 16 15 15 16 16 16 16 14 13 12 10 8 5 4 5 5 4 3 1 0 1 1 0 0 0 0 0 0 0 0 0 0 0 0
0 0 0 0 0 0 0 0 0 0 1 2 4 8 12 12 11 11 12 13 15 17 17 16 13 12 11 9 6 4 4 4 4 2 0 0 0 0 0 0 0 0 0 0 0 0 0 0 0
0 0 0 0 0 0 0 0 0 0 0 1 2 5 9 9 7 7 9 11 13 16 18 17 15 14 14 11 6 3 3 3 3 2 1 0 0 0 0 0 0 0 0 0 0 0 0 0 0
0 0 0 0 0 0 0 0 0 0 0 0 1 3 5 7 7 6 7 8 9 12 15 15 15 14 13 9 5 2 2 2 2 2 1 0 0 0 0 0 0 0 0 0 0 0 0 0 0
0 0 0 0 0 0 0 0 0 0 0 0 1 2 3 4 7 8 8 8 8 9 11 13 13 13 9 6 3 1 1 1 1 1 1 0 0 0 0 0 0 0 0 0 0 0 0 0 0
0 0 0 0 0 0 0 0 0 0 0 0 1 2 2 3 5 7 8 8 8 8 8 9 10 10 7 5 3 1 0 0 0 0 0 0 0 0 0 0 0 0 0 0 0 0 0 0 0
0 0 0 0 0 0 0 0 0 0 0 0 1 1 1 2 3 5 6 6 6 6 6 6 7 8 7 4 2 1 0 0 0 0 0 0 0 0 0 0 0 0 0 0 0 0 0 0 0
0 0 0 0 0 0 0 0 0 0 0 0 0 0 0 1 3 5 5 5 5 4 4 4 5 6 5 3 1 1 0 0 0 0 0 0 0 0 0 0 0 0 0 0 0 0 0 0 0
0 0 0 0 0 0 0 0 0 0 0 0 0 0 0 1 3 5 5 4 4 2 2 3 4 4 4 2 0 0 0 0 0 0 0 0 0 0 0 0 0 0 0 0 0 0 0 0 0
Wind_Speed
4 2 2 1 3 4 2 3 2 2 1 0 3 4 5 4 4 3 2 11 15 14 13 16 19 18 18 17 17 17 17 16 16 15 14 14 13 12 12 11 10 10 11 11 11 11 11 11 12
3 3 1 2 5 3 3 2 2 2 1 2 3 3 3 2 3 6 6 10 16 14 12 13 19 18 18 17 17 16 16 16 15 14 13 13 12 12 11 11 10 10 10 11 10 11 11 11 12
3 2 3 4 3 2 3 3 2 1 1 1 2 2 2 2 5 7 7 14 14 12 10 14 21 19 18 17 16 16 16 15 14 14 13 12 12 11 11 10 10 10 10 10 10 10 11 11 11
2 3 4 4 1 4 4 4 2 1 1 0 3 2 2 1 4 6 13 16 15 12 10 14 20 19 18 17 16 16 15 14 14 13 12 11 11 11 11 10 10 10 10 10 10 10 11 11 11
3 4 5 3 4 5 5 5 5 4 2 1 3 3 1 3 6 13 16 16 15 12 10 13 20 19 18 17 16 16 15 14 13 12 11 11 11 10 10 10 10 10 10 10 10 10 10 10 10
4 4 4 3 5 5 4 3 3 4 2 2 4 3 1 3 8 13 14 13 13 13 11 12 19 19 18 17 17 16 15 14 13 12 11 11 11 10 10 10 9 9 9 9 9 10 10 9 9
3 4 1 2 5 5 3 1 2 2 2 3 5 5 1 3 6 10 11 12 11 11 10 9 11 14 17 17 16 16 15 14 13 12 11 11 11 10 10 9 9 9 9 9 9 9 9 8 7
4 4 1 2 3 5 2 1 1 3 2 1 4 6 5 6 9 10 10 10 10 9 9 8 8 7 8 10 15 16 15 14 13 12 11 11 10 10 9 8 7 8 8 8 8 8 8 7 6
4 4 1 4 4 6 3 1 1 2 3 2 1 2 4 14 14 13 11 9 10 10 8 8 7 7 6 7 11 12 13 13 12 10 12 9 4 4 5 6 7 7 7 7 7 7 7 6 5
4 2 6 6 4 5 5 3 3 2 2 1 2 4 12 16 15 15 15 14 13 12 9 7 7 7 7 7 6 4 4 5 5 4 4 4 3 3 4 4 6 7 6 6 6 6 7 5 3
4 6 5 6 6 5 4 3 3 5 4 7 7 11 15 16 14 14 13 12 12 11 10 8 8 7 6 4 4 3 3 3 4 4 4 4 3 2 2 1 1 2 3 3 4 4 3 3 3
4 6 6 7 5 3 4 2 1 5 7 5 9 15 17 16 14 14 14 12 11 11 10 9 8 7 6 5 4 4 3 3 3 3 4 3 2 2 1 1 1 1 2 2 2 2 2 3 3
3 5 5 7 8 4 2 2 2 3 2 5 11 14 15 14 12 9 9 10 10 11 10 9 9 8 6 5 4 5 4 4 3 3 3 4 3 2 2 1 1 2 2 2 2 1 2 2 2
3 5 7 7 5 2 1 2 1 3 4 9 12 12 12 12 11 9 10 11 11 11 11 9 9 7 6 5 4 4 4 4 3 3 4 4 3 3 3 2 2 2 2 2 2 2 2 1 1
3 5 8 4 3 2 2 4 2 2 6 9 9 10 10 8 9 11 12 12 11 10 10 10 10 8 7 6 5 4 4 4 4 3 4 4 4 4 3 3 2 2 2 2 2 2 2 2 1
3 4 5 6 3 3 2 5 4 3 7 7 7 8 8 7 8 8 9 8 9 9 10 10 10 9 8 6 5 4 4 4 4 3 3 5 5 5 4 3 3 3 2 2 2 2 2 2 2
5 3 4 8 3 3 1 6 4 1 6 6 6 6 7 6 6 6 8 9 9 10 10 10 8 9 8 6 4 4 4 4 4 4 4 4 5 5 4 3 2 3 3 2 2 2 2 2 2
2 2 4 6 6 5 4 5 4 1 5 5 6 6 6 7 8 6 7 8 8 9 9 9 8 8 7 5 4 2 3 3 3 4 4 5 4 5 4 3 3 3 3 2 2 3 2 2 2
2 3 7 9 6 4 5 5 4 1 3 5 5 6 6 6 5 6 6 7 8 8 9 10 8 7 7 5 5 4 4 3 3 3 5 6 5 6 5 4 4 3 3 3 4 3 3 2 2
3 4 7 9 4 2 3 4 3 1 2 4 6 7 7 5 5 6 6 7 8 9 8 8 8 8 8 6 5 3 3 2 2 2 3 5 6 6 5 5 4 4 3 4 3 3 3 2 2
4 5 6 7 7 4 2 6 3 2 1 1 2 4 5 7 8 7 7 8 8 9 10 9 9 9 8 7 4 4 3 2 2 2 2 3 5 5 5 6 5 4 4 4 3 4 4 3 1
6 6 7 5 2 5 2 4 7 2 2 1 2 3 5 6 6 6 7 7 8 9 8 9 9 9 9 8 8 9 6 5 5 4 3 3 4 5 5 6 5 5 3 4 3 3 3 4 3
8 3 2 2 2 2 2 2 8 2 3 4 4 4 4 5 6 6 6 6 6 7 8 9 9 8 8 8 9 9 6 4 3 3 4 3 3 4 5 5 5 5 3 4 4 4 3 3 3
4 4 5 5 5 1 3 2 7 4 5 4 4 4 5 5 5 4 4 4 4 5 6 7 8 8 8 8 8 9 9 7 7 6 5 4 2 2 4 5 4 5 4 4 4 4 4 3 3
4 5 4 5 4 5 2 2 9 6 5 5 5 5 5 5 5 5 5 5 5 6 7 7 8 7 7 8 8 8 9 9 9 7 7 5 4 3 4 4 4 4 4 4 4 4 4 4 4
6 10 8 5 5 5 2 5 8 5 3 3 3 4 5 6 6 6 6 6 6 6 7 7 8 7 7 7 7 6 7 6 5 6 6 6 4 4 5 5 5 5 5 5 4 3 3 4 4
7 5 7 8 3 1 5 7 9 3 2 1 2 4 5 6 7 6 6 6 6 6 6 7 7 6 6 7 6 6 6 6 6 6 5 4 4 4 6 5 5 5 5 5 5 3 4 4 3
6 9 6 7 6 3 4 4 6 6 5 3 3 4 4 4 5 5 5 5 5 5 5 5 6 6 6 6 6 6 6 6 6 5 6 5 5 4 6 6 5 5 5 6 5 4 4 4 3
4 4 5 5 6 7 3 8 7 7 5 4 4 4 5 5 6 5 5 5 5 5 5 5 5 5 5 5 5 6 6 6 6 6 6 6 5 6 6 6 5 5 5 5 5 4 5 5 4
5 8 9 7 5 5 5 9 5 4 3 3 3 3 4 4 4 5 6 6 5 5 5 5 4 5 5 5 5 6 6 6 6 6 6 6 6 6 6 6 6 5 5 5 5 5 5 5 5
Wind_Direction
205 163 138 119 57 46 350 301 297 340 4 48 134 138 145 150 173 194 123 139 138 144 149 150 149 144 139 135 132 130 129 129 128 128 128 128 127 126 123 122 118 117 116 115 114 114 115 115 117
144 153 132 63 74 47 316 295 305 280 175 110 89 96 104 107 97 116 130 143 142 144 146 149 150 146 142 139 136 135 133 132 131 131 130 131 130 128 125 123 120 118 117 116 117 118 119 119 120
168 162 88 67 83 167 258 264 255 323 124 127 109 70 112 142 139 148 151 144 140 143 145 154 152 149 146 144 141 140 138 136 135 134 134 134 132 131 128 125 122 121 119 117 118 119 120 121 122
129 54 53 62 326 233 231 239 208 156 286 74 127 104 72 44 151 148 142 144 141 143 146 157 153 151 149 148 146 144 143 141 140 139 137 136 136 135 132 128 124 122 119 117 116 117 121 122 124
68 73 51 17 289 262 243 239 194 181 216 203 133 133 85 9 111 134 143 146 146 144 148 157 155 154 153 152 151 149 147 145 144 143 141 139 139 136 132 128 126 124 121 119 117 118 121 125 128
56 63 64 332 296 281 264 236 170 184 197 169 142 136 89 83 124 141 145 146 147 148 149 155 158 157 157 156 155 153 152 149 148 146 144 142 141 136 132 130 129 127 123 120 119 120 123 125 126
102 89 112 278 293 298 276 174 148 168 202 198 153 137 121 136 140 139 138 139 142 146 146 151 157 159 161 160 158 158 156 154 151 149 148 145 142 141 138 134 134 130 126 124 123 123 124 125 129
126 98 21 286 273 281 284 29 133 149 208 140 136 158 188 170 141 130 129 134 141 145 146 146 146 150 155 159 162 162 161 158 154 154 153 152 149 146 142 136 139 134 131 129 126 125 122 124 129
99 73 271 244 242 270 284 339 338 126 130 120 130 167 150 136 138 136 139 143 152 154 148 146 145 146 145 153 168 164 164 163 160 159 160 150 126 123 132 147 150 140 137 133 128 127 123 119 119
101 148 238 228 225 265 289 260 206 142 151 169 90 93 126 140 148 154 160 163 164 162 158 153 150 150 150 163 156 149 152 152 141 137 134 115 112 124 135 168 159 150 144 135 126 120 112 95 79
167 209 250 261 245 254 269 255 176 155 221 211 188 159 150 154 160 165 168 169 168 163 163 162 156 154 156 151 142 134 127 127 127 130 125 122 116 112 104 94 122 113 117 88 90 86 83 94 100
202 247 249 274 276 275 250 227 188 196 230 207 170 156 157 165 170 173 171 169 164 165 168 163 162 160 157 147 143 137 134 134 135 139 140 136 136 136 134 125 108 92 87 99 90 91 95 103 117
237 273 274 270 291 277 251 242 220 258 255 124 134 150 166 172 175 175 167 163 165 169 168 169 165 165 159 149 153 150 146 148 149 149 157 158 159 166 163 157 147 136 121 122 117 107 107 113 125
264 277 290 293 305 310 224 286 157 255 129 125 140 161 174 176 170 165 167 171 173 172 169 165 165 165 159 156 156 154 153 151 156 167 177 175 171 170 167 166 167 162 155 149 142 128 119 118 126
305 314 322 317 327 330 44 329 265 200 137 138 153 165 174 178 172 178 179 177 175 171 168 167 168 163 164 162 167 160 159 157 167 178 183 181 176 175 168 166 176 175 160 146 126 110 102 116 124
6 13 331 305 333 353 55 288 285 151 145 151 161 168 176 183 186 185 177 171 169 166 168 171 175 172 172 169 166 157 161 166 172 172 178 186 180 172 164 168 180 167 150 145 136 126 117 114 122
22 1 307 308 322 11 6 275 295 157 153 156 163 173 178 177 186 186 178 174 172 171 170 172 175 174 170 162 160 161 159 169 170 165 174 183 180 174 166 169 169 154 146 148 155 125 131 137 136
275 305 299 296 303 336 310 275 291 173 160 163 163 169 176 185 193 181 174 173 170 169 169 170 173 167 158 152 149 151 152 164 167 169 177 175 174 170 160 157 158 151 146 149 142 124 107 114 130
215 266 282 278 289 306 299 295 291 217 157 163 170 176 184 194 178 165 170 173 168 167 170 169 169 166 158 162 168 170 179 174 173 179 178 173 168 165 160 155 149 153 158 164 152 126 118 107 118
224 275 285 296 326 324 303 303 295 213 192 188 184 188 189 183 169 172 172 175 176 176 173 169 167 170 174 177 174 162 145 157 169 169 169 170 165 165 163 153 155 156 147 145 149 134 124 110 118
245 228 253 273 322 351 358 323 307 326 3 136 178 188 183 186 185 181 183 187 182 181 177 176 173 174 177 173 152 131 112 101 131 162 168 173 165 162 156 159 155 158 157 160 164 153 143 138 118
259 231 225 259 311 302 25 291 293 311 316 236 210 189 189 190 186 186 188 189 187 185 177 174 176 174 177 175 170 169 172 176 186 172 166 160 159 160 160 158 157 157 153 156 166 159 146 139 144
222 221 214 255 201 301 339 199 285 316 271 247 228 208 197 194 188 190 191 189 186 176 175 175 172 173 175 176 177 177 174 172 157 148 150 153 154 162 163 159 155 153 151 156 155 151 147 144 150
197 64 48 48 73 337 268 188 278 256 240 250 230 208 197 191 181 178 175 160 158 161 162 162 165 175 177 178 178 177 171 165 160 162 165 162 155 155 161 154 151 151 152 157 160 155 148 145 140
132 91 24 358 12 255 279 225 253 256 242 230 226 217 193 181 172 166 163 160 159 161 164 162 165 175 177 179 180 179 176 171 173 173 171 165 165 169 175 157 154 155 157 156 150 147 147 147 145
176 147 160 193 219 272 317 245 258 265 265 247 208 192 178 172 170 172 174 168 166 165 166 168 171 175 176 180 182 179 174 169 171 173 167 171 176 175 166 159 158 159 156 153 146 139 146 145 146
146 180 165 134 153 273 287 288 301 278 286 278 169 167 181 179 174 174 170 163 161 163 169 174 172 169 173 179 177 175 169 163 167 166 161 162 166 164 158 158 156 157 154 150 146 142 146 142 138
145 145 111 127 148 217 283 280 261 276 266 247 196 190 197 183 174 171 168 163 157 156 159 162 165 169 172 173 175 175 169 164 162 160 165 165 164 154 150 155 158 156 152 151 145 142 145 137 132
122 121 116 118 148 155 217 264 230 236 242 217 198 193 186 181 173 165 160 155 146 145 150 155 155 152 159 167 166 162 162 158 157 163 167 164 158 155 155 157 155 155 153 152 148 147 145 136 126
168 167 148 151 189 166 168 259 272 245 247 192 172 181 180 171 166 161 156 145 144 145 147 153 155 155 158 155 153 156 152 151 156 161 162 156 152 152 152 149 147 151 151 151 151 148 142 137 129